Flag for Kazakhstan Weather past 2 weeks in Aqtobe, Kazakhstan

Now
73 °F

Clear.


Feels Like: 76 °F
Forecast: 48 / 87 °F
Wind: 1 mph from North

Location: Aktjubinsk

Current Time: Jul 30, 2014 at 9:44:05 PM

Latest Report: Jul 30, 2014 at 9:00 PM


Visibility: 10 mi

Pressure: 30.04 "Hg

Humidity: 22%

Dew point: 32 °F

Location of AqtobeLocation

Historic Weather in Aqtobe — Graph

°F

Aqtobe temperature yesterday

Maximum temperature yesterday: 73 °F (at 6:30 PM)
Minimum temperature yesterday: 46 °F (at 5:30 AM)
Average temperature yesterday: 61 °F

Past Weeks' High & Low Weather Summary

 TemperatureHumidityPressure
High90 °F (Jul 17, 1:30 PM)100% (Jul 28, 5:30 AM)30.09 "Hg (Jul 28, 5:30 AM)
Low45 °F (Jul 28, 5:00 AM)16% (Jul 30, 7:00 PM)29.59 "Hg (Jul 19, 10:30 PM)
Average65 °F52%29.82 "Hg
* Reported Jul 15 8:00 PM — Jul 30 8:30 PM, Aqtobe, Weather by CustomWeather, © 2014

Note: Actual official high and low records may vary slightly from our data, if they occured in-between our weather recording intervals... More about our weather records

Advertising

Aqtobe weather history for previous 24 hours

 ConditionsComfort  
Time TempWeatherWind HumidityBarometerVisibility
8:30 PM
Jul 30
75 °FSunny.6 mph22%30.04 "Hg10 mi
8:00 PM77 °FSunny.6 mph19%30.04 "Hg10 mi
7:30 PM79 °FSunny.6 mph18%30.04 "Hg10 mi
7:00 PM81 °FSunny.1 mph16%30.04 "Hg10 mi
6:30 PM81 °FPassing clouds.3 mph17%30.04 "HgN/A
6:00 PM81 °FPassing clouds.6 mph17%30.04 "HgN/A
5:30 PM79 °FPassing clouds.3 mph20%30.04 "HgN/A
5:00 PM79 °FPassing clouds.3 mph18%30.04 "HgN/A
4:30 PM81 °FSunny.3 mph18%30.04 "Hg10 mi
4:00 PM81 °FSunny.1 mph18%30.07 "Hg10 mi
3:30 PM79 °FPassing clouds.6 mph18%30.07 "HgN/A
3:00 PM79 °FPassing clouds.6 mph20%30.07 "HgN/A
2:30 PM77 °FPassing clouds.3 mph22%30.07 "HgN/A
2:00 PM77 °FPassing clouds.6 mph22%30.07 "HgN/A
1:30 PM77 °FSunny.3 mph22%30.07 "Hg10 mi
1:00 PM75 °FPassing clouds.3 mph24%30.09 "HgN/A
12:30 PM75 °FPassing clouds.6 mph25%30.09 "HgN/A
12:00 PM73 °FPassing clouds.6 mph27%30.09 "HgN/A
11:30 AM73 °FPassing clouds.8 mph27%30.09 "HgN/A
11:00 AM72 °FPassing clouds.3 mph31%30.09 "HgN/A
10:30 AM70 °FPassing clouds.6 mph33%30.09 "HgN/A
10:00 AM70 °FSunny.3 mph33%30.09 "Hg10 mi
9:30 AM66 °FSunny.6 mph40%30.09 "Hg10 mi
9:00 AM64 °FPassing clouds.6 mph43%30.09 "HgN/A
8:30 AM61 °FSunny.8 mph48%30.09 "Hg10 mi
8:00 AM57 °FSunny.8 mph55%30.09 "Hg10 mi
7:30 AM52 °FSunny.3 mph67%30.09 "Hg10 mi
7:00 AM50 °FSunny.1 mph71%30.09 "Hg10 mi
6:30 AM48 °FSunny.1 mph71%30.07 "Hg10 mi
6:00 AM46 °FSunny.1 mph76%30.07 "Hg10 mi
5:30 AM46 °FClear.3 mph76%30.07 "Hg10 mi
5:00 AM46 °FClear.No wind76%30.07 "Hg10 mi
4:30 AM46 °FClear.3 mph82%30.07 "Hg10 mi
4:00 AM50 °FClear.3 mph71%30.07 "Hg10 mi
3:30 AM48 °FClear.1 mph71%30.07 "Hg10 mi
3:00 AM50 °FClear.1 mph71%30.07 "Hg10 mi
2:30 AM50 °FClear.1 mph71%30.07 "Hg10 mi
2:00 AM54 °FClear.3 mph63%30.07 "Hg10 mi
1:30 AM54 °FClear.6 mph63%30.07 "Hg10 mi
1:00 AM55 °FClear.8 mph59%30.04 "Hg10 mi
12:30 AM55 °FClear.6 mph59%30.04 "Hg10 mi
12:00 AM55 °FClear.3 mph55%30.04 "HgN/A
11:30 PM
Jul 29
57 °FClear.6 mph55%30.04 "Hg4 mi
11:00 PM59 °FClear.6 mph51%30.04 "HgN/A
10:30 PM57 °FClear.1 mph51%30.04 "Hg10 mi
10:00 PM63 °FClear.1 mph39%30.04 "Hg10 mi
9:30 PM64 °FClear.1 mph37%30.01 "Hg10 mi
9:00 PM68 °FClear.3 mph33%30.01 "Hg10 mi
Weather by CustomWeather, © 2014

See weather overviewHow to use our weather pages